N992DB KCMH-KBMG

Flight info

Callsign N992DB
Flight time 0h 45m
Altitude 24000
Route PKACZ TARRY DQN SHB
Aircraft C25C/M-SDE2E3FGHRWXY/LB1

Departure

Time 2026-04-25 15:50
Airport John Glenn Columbus International Airport (KCMH)

Arrival

Time 2026-04-25 16:35
Airport Monroe County Airport (KBMG)
Time Latitude Longitude Altitude Speed Heading
2026-04-25 15:25 39.99663 -82.88930 812 ft 0 kts 275°
2026-04-25 15:44 39.99663 -82.88931 814 ft 2 kts 275°
2026-04-25 15:45 39.99629 -82.88941 813 ft 13 kts 127°
2026-04-25 15:45 39.99609 -82.88798 812 ft 18 kts 95°
2026-04-25 15:45 39.99599 -82.88634 813 ft 18 kts 94°
2026-04-25 15:45 39.99596 -82.88577 813 ft 20 kts 93°
2026-04-25 15:46 39.99532 -82.88316 812 ft 19 kts 186°
2026-04-25 15:46 39.99420 -82.88323 813 ft 12 kts 160°
2026-04-25 15:46 39.99390 -82.88229 814 ft 12 kts 94°
2026-04-25 15:46 39.99382 -82.88084 813 ft 22 kts 94°
2026-04-25 15:47 39.99371 -82.87883 817 ft 22 kts 94°
2026-04-25 15:47 39.99359 -82.87680 818 ft 22 kts 94°
2026-04-25 15:47 39.99347 -82.87481 817 ft 21 kts 95°
2026-04-25 15:47 39.99337 -82.87354 817 ft 12 kts 111°
2026-04-25 15:48 39.99254 -82.87324 816 ft 13 kts 184°
2026-04-25 15:48 39.99239 -82.87325 816 ft 0 kts 185°
2026-04-25 15:49 39.99212 -82.87328 816 ft 12 kts 185°
2026-04-25 15:49 39.99167 -82.87401 816 ft 8 kts 276°
2026-04-25 15:49 39.99171 -82.87463 813 ft 29 kts 274°
2026-04-25 15:50 39.99244 -82.88196 945 ft 125 kts 282°
2026-04-25 15:50 39.99369 -82.89529 1706 ft 166 kts 280°
2026-04-25 15:50 39.99553 -82.91166 2764 ft 193 kts 283°
2026-04-25 15:50 39.99803 -82.92999 3831 ft 215 kts 285°
2026-04-25 15:51 40.00021 -82.94284 4479 ft 234 kts 286°
2026-04-25 15:51 40.00270 -82.95663 4799 ft 227 kts 287°
2026-04-25 15:51 40.00692 -82.98100 5361 ft 186 kts 287°
2026-04-25 15:51 40.01046 -83.00234 5859 ft 169 kts 285°
2026-04-25 15:52 40.01294 -83.01854 6300 ft 186 kts 285°
2026-04-25 15:52 40.01483 -83.02908 7035 ft 168 kts 290°
2026-04-25 15:52 40.01608 -83.04425 7853 ft 171 kts 269°
2026-04-25 15:52 40.01537 -83.06047 8462 ft 188 kts 274°
2026-04-25 15:53 40.01536 -83.08427 9297 ft 207 kts 275°
2026-04-25 15:53 40.01547 -83.09720 9738 ft 224 kts 274°
2026-04-25 15:53 40.01545 -83.11871 10359 ft 249 kts 273°
2026-04-25 15:53 40.01539 -83.14230 10993 ft 271 kts 273°
2026-04-25 15:54 40.01530 -83.16782 11639 ft 291 kts 274°
2026-04-25 15:54 40.01528 -83.19499 12303 ft 308 kts 273°
2026-04-25 15:54 40.01508 -83.22355 13083 ft 316 kts 272°
2026-04-25 15:54 40.01503 -83.25303 13708 ft 334 kts 273°
2026-04-25 15:55 40.01492 -83.28348 14546 ft 337 kts 272°
2026-04-25 15:55 40.01479 -83.31413 15390 ft 340 kts 272°
2026-04-25 15:55 40.01468 -83.34507 16223 ft 342 kts 272°
2026-04-25 15:55 40.01454 -83.37624 17059 ft 345 kts 271°
2026-04-25 15:56 40.01441 -83.40762 17878 ft 348 kts 271°
2026-04-25 15:56 40.01423 -83.43918 18730 ft 348 kts 270°
2026-04-25 15:56 40.01408 -83.47076 19538 ft 347 kts 270°
2026-04-25 15:56 40.01391 -83.50229 20370 ft 347 kts 269°
2026-04-25 15:57 40.01377 -83.53393 21139 ft 350 kts 268°
2026-04-25 15:57 40.01354 -83.56568 21907 ft 353 kts 268°
2026-04-25 15:57 40.01501 -83.59857 21962 ft 376 kts 277°
2026-04-25 15:57 40.01966 -83.63291 21966 ft 390 kts 277°
2026-04-25 15:58 40.02407 -83.66748 21968 ft 383 kts 277°
2026-04-25 15:58 40.02829 -83.70169 21962 ft 380 kts 277°
2026-04-25 15:58 40.03240 -83.73560 21959 ft 378 kts 277°
2026-04-25 15:58 40.03662 -83.76954 21962 ft 380 kts 277°
2026-04-25 15:59 40.04064 -83.80368 21961 ft 382 kts 277°
2026-04-25 15:59 40.04450 -83.83797 21962 ft 382 kts 276°
2026-04-25 15:59 40.04814 -83.87241 21961 ft 383 kts 276°
2026-04-25 15:59 40.05159 -83.90698 21959 ft 384 kts 275°
2026-04-25 16:00 40.05484 -83.94160 21952 ft 385 kts 275°
2026-04-25 16:00 40.05663 -83.96462 21949 ft 385 kts 271°
2026-04-25 16:00 40.05195 -84.01072 21950 ft 384 kts 257°
2026-04-25 16:00 40.04604 -84.04429 21956 ft 385 kts 257°
2026-04-25 16:01 40.04067 -84.07848 21966 ft 385 kts 260°
2026-04-25 16:01 40.03803 -84.11329 21967 ft 386 kts 265°
2026-04-25 16:01 40.03652 -84.14828 21971 ft 386 kts 265°
2026-04-25 16:01 40.03426 -84.18318 21974 ft 386 kts 264°
2026-04-25 16:02 40.03109 -84.21798 21976 ft 386 kts 261°
2026-04-25 16:02 40.02762 -84.25268 21975 ft 386 kts 262°
2026-04-25 16:02 40.02457 -84.28746 21973 ft 386 kts 263°
2026-04-25 16:02 40.02239 -84.32241 21975 ft 387 kts 265°
2026-04-25 16:03 40.01704 -84.35660 21956 ft 388 kts 248°
2026-04-25 16:03 40.00430 -84.38756 21928 ft 388 kts 240°
2026-04-25 16:03 39.99000 -84.41753 21931 ft 389 kts 239°
2026-04-25 16:03 39.97603 -84.44774 21927 ft 389 kts 242°
2026-04-25 16:04 39.96438 -84.47955 21933 ft 389 kts 247°
2026-04-25 16:04 39.95369 -84.51192 21937 ft 389 kts 246°
2026-04-25 16:04 39.94201 -84.54372 21945 ft 389 kts 244°
2026-04-25 16:04 39.92983 -84.57523 21954 ft 389 kts 244°
2026-04-25 16:05 39.91797 -84.60695 21955 ft 389 kts 245°
2026-04-25 16:05 39.90632 -84.63874 21950 ft 389 kts 245°
2026-04-25 16:05 39.88274 -84.70216 21974 ft 389 kts 245°
2026-04-25 16:06 39.87088 -84.73387 21978 ft 390 kts 244°
2026-04-25 16:06 39.85904 -84.76562 21986 ft 390 kts 245°
2026-04-25 16:06 39.84718 -84.79741 21987 ft 391 kts 244°
2026-04-25 16:06 39.83527 -84.82925 21989 ft 391 kts 245°
2026-04-25 16:07 39.82335 -84.86106 21989 ft 391 kts 244°
2026-04-25 16:07 39.81544 -84.88210 21989 ft 391 kts 245°
2026-04-25 16:07 39.79952 -84.92462 21990 ft 391 kts 244°
2026-04-25 16:07 39.78761 -84.95641 21989 ft 391 kts 245°
2026-04-25 16:08 39.77571 -84.98828 21986 ft 391 kts 244°
2026-04-25 16:08 39.76352 -85.01993 21981 ft 391 kts 244°
2026-04-25 16:08 39.75167 -85.05177 21978 ft 392 kts 245°
2026-04-25 16:08 39.73970 -85.08360 21974 ft 392 kts 245°
2026-04-25 16:09 39.72769 -85.11548 21969 ft 393 kts 245°
2026-04-25 16:09 39.71556 -85.14731 21966 ft 393 kts 245°
2026-04-25 16:09 39.70372 -85.17878 21954 ft 394 kts 244°
2026-04-25 16:09 39.69160 -85.21068 21951 ft 393 kts 244°
2026-04-25 16:10 39.67958 -85.24250 21947 ft 392 kts 244°
2026-04-25 16:10 39.66750 -85.27415 21943 ft 391 kts 244°
2026-04-25 16:10 39.65552 -85.30584 21916 ft 392 kts 244°
2026-04-25 16:10 39.64347 -85.33738 21756 ft 383 kts 244°
2026-04-25 16:11 39.63194 -85.36778 21568 ft 368 kts 244°
2026-04-25 16:11 39.62071 -85.39707 21263 ft 359 kts 244°
2026-04-25 16:11 39.60975 -85.42596 20747 ft 356 kts 244°
2026-04-25 16:11 39.59872 -85.45467 20244 ft 355 kts 245°
2026-04-25 16:12 39.58779 -85.48338 19754 ft 355 kts 245°
2026-04-25 16:12 39.57676 -85.51213 19157 ft 358 kts 245°
2026-04-25 16:12 39.56566 -85.54119 18569 ft 361 kts 244°
2026-04-25 16:12 39.55810 -85.56092 18167 ft 363 kts 244°
2026-04-25 16:13 39.54314 -85.59985 17296 ft 366 kts 245°
2026-04-25 16:13 39.53175 -85.62947 16654 ft 368 kts 245°
2026-04-25 16:13 39.52034 -85.65918 16028 ft 369 kts 245°
2026-04-25 16:13 39.50897 -85.68870 15637 ft 363 kts 245°
2026-04-25 16:14 39.49777 -85.71775 15268 ft 358 kts 245°
2026-04-25 16:14 39.48668 -85.74653 14901 ft 354 kts 245°
2026-04-25 16:14 39.47574 -85.77485 14640 ft 348 kts 245°
2026-04-25 16:14 39.46485 -85.80305 14470 ft 354 kts 245°
2026-04-25 16:15 39.45374 -85.83182 14304 ft 361 kts 245°
2026-04-25 16:15 39.44253 -85.86071 14139 ft 367 kts 245°
2026-04-25 16:15 39.43092 -85.89072 14050 ft 369 kts 245°
2026-04-25 16:15 39.41940 -85.92032 14020 ft 369 kts 245°
2026-04-25 16:16 39.40810 -85.94953 14006 ft 368 kts 245°
2026-04-25 16:16 39.39657 -85.97907 13979 ft 368 kts 245°
2026-04-25 16:16 39.38511 -86.00864 13981 ft 367 kts 245°
2026-04-25 16:16 39.37361 -86.03808 13997 ft 367 kts 245°
2026-04-25 16:17 39.36219 -86.06749 13994 ft 366 kts 245°
2026-04-25 16:17 39.35072 -86.09687 13993 ft 366 kts 244°
2026-04-25 16:17 39.33919 -86.12619 13991 ft 366 kts 245°
2026-04-25 16:17 39.32767 -86.15547 13986 ft 366 kts 242°
2026-04-25 16:18 39.31070 -86.18004 13873 ft 372 kts 220°
2026-04-25 16:18 39.30373 -86.18682 13787 ft 368 kts 217°
2026-04-25 16:18 39.26976 -86.21691 13348 ft 346 kts 216°
2026-04-25 16:18 39.25123 -86.23587 13077 ft 336 kts 223°
2026-04-25 16:19 39.23444 -86.25637 12804 ft 328 kts 224°
2026-04-25 16:19 39.21753 -86.27583 12542 ft 323 kts 221°
2026-04-25 16:19 39.20051 -86.29454 12284 ft 320 kts 221°
2026-04-25 16:20 39.16715 -86.33167 11775 ft 314 kts 222°
2026-04-25 16:20 39.15067 -86.35009 11524 ft 313 kts 221°
2026-04-25 16:20 39.11811 -86.38639 11039 ft 311 kts 221°
2026-04-25 16:21 39.10161 -86.40483 10792 ft 310 kts 222°
2026-04-25 16:21 39.08528 -86.42296 10548 ft 309 kts 221°
2026-04-25 16:21 39.06881 -86.44076 10308 ft 309 kts 220°
2026-04-25 16:21 39.05273 -86.45751 10075 ft 292 kts 219°
2026-04-25 16:22 39.03551 -86.46952 9811 ft 278 kts 192°
2026-04-25 16:22 39.01674 -86.46895 9527 ft 265 kts 170°
2026-04-25 16:22 38.99894 -86.46465 9247 ft 256 kts 166°
2026-04-25 16:22 38.98178 -86.45978 8979 ft 249 kts 166°
2026-04-25 16:23 38.96500 -86.45497 8710 ft 244 kts 166°
2026-04-25 16:23 38.94852 -86.45034 8419 ft 241 kts 166°
2026-04-25 16:23 38.93190 -86.44561 7915 ft 248 kts 167°
2026-04-25 16:23 38.91491 -86.44074 7423 ft 252 kts 166°
2026-04-25 16:24 38.89765 -86.43578 6947 ft 256 kts 166°
2026-04-25 16:24 38.88022 -86.43073 6476 ft 257 kts 166°
2026-04-25 16:24 38.86271 -86.42566 5977 ft 258 kts 166°
2026-04-25 16:24 38.84521 -86.42059 5479 ft 258 kts 166°
2026-04-25 16:25 38.83365 -86.41720 5152 ft 257 kts 166°
2026-04-25 16:25 38.82209 -86.41381 4829 ft 257 kts 166°
2026-04-25 16:25 38.79287 -86.41159 3971 ft 256 kts 204°
2026-04-25 16:25 38.77981 -86.42624 3469 ft 251 kts 240°
2026-04-25 16:26 38.77620 -86.44737 3053 ft 241 kts 280°
2026-04-25 16:26 38.78322 -86.46547 2983 ft 220 kts 312°
2026-04-25 16:26 38.79400 -86.47828 2980 ft 206 kts 327°
2026-04-25 16:26 38.80555 -86.48864 2974 ft 205 kts 327°
2026-04-25 16:27 38.81734 -86.49882 2970 ft 203 kts 328°
2026-04-25 16:27 38.82901 -86.50881 2970 ft 200 kts 329°
2026-04-25 16:27 38.84060 -86.51870 2979 ft 199 kts 328°
2026-04-25 16:27 38.85214 -86.52860 2969 ft 198 kts 330°
2026-04-25 16:28 38.86360 -86.53834 2974 ft 198 kts 327°
2026-04-25 16:28 38.87504 -86.54833 2972 ft 201 kts 328°
2026-04-25 16:28 38.88703 -86.55761 2970 ft 201 kts 335°
2026-04-25 16:28 38.89948 -86.56607 2968 ft 202 kts 335°
2026-04-25 16:29 38.91271 -86.57160 2974 ft 199 kts 351°
2026-04-25 16:29 38.92640 -86.57432 2976 ft 199 kts 354°
2026-04-25 16:29 38.94011 -86.57712 2977 ft 200 kts 352°
2026-04-25 16:29 38.95378 -86.57976 2977 ft 198 kts 353°
2026-04-25 16:30 38.96280 -86.58151 2975 ft 197 kts 353°
2026-04-25 16:30 38.98098 -86.58491 2972 ft 198 kts 353°
2026-04-25 16:30 38.99472 -86.58750 2810 ft 199 kts 354°
2026-04-25 16:30 39.00843 -86.59005 2634 ft 199 kts 353°
2026-04-25 16:31 39.02210 -86.59263 2546 ft 196 kts 354°
2026-04-25 16:31 39.03541 -86.59502 2514 ft 189 kts 353°
2026-04-25 16:31 39.04790 -86.59738 2518 ft 172 kts 353°
2026-04-25 16:31 39.05908 -86.59945 2524 ft 143 kts 353°
2026-04-25 16:32 39.06762 -86.60112 2484 ft 111 kts 353°
2026-04-25 16:32 39.07468 -86.60241 2463 ft 94 kts 357°
2026-04-25 16:32 39.08116 -86.60368 2332 ft 95 kts 354°
2026-04-25 16:32 39.08745 -86.60473 2356 ft 86 kts 357°
2026-04-25 16:33 39.09366 -86.60594 2177 ft 94 kts 354°
2026-04-25 16:33 39.10000 -86.60738 2094 ft 94 kts 354°
2026-04-25 16:33 39.10645 -86.60838 1938 ft 97 kts 357°
2026-04-25 16:33 39.11314 -86.60950 1805 ft 97 kts 354°
2026-04-25 16:34 39.11979 -86.61111 1673 ft 100 kts 356°
2026-04-25 16:34 39.12695 -86.61228 1411 ft 106 kts 355°
2026-04-25 16:34 39.13434 -86.61366 1147 ft 109 kts 354°
2026-04-25 16:34 39.14156 -86.61503 891 ft 100 kts 353°
2026-04-25 16:35 39.14745 -86.61605 873 ft 72 kts 351°
2026-04-25 16:35 39.15125 -86.61683 874 ft 27 kts 352°
2026-04-25 16:35 39.15300 -86.61716 873 ft 24 kts 353°
2026-04-25 16:35 39.15439 -86.61741 873 ft 10 kts 354°
2026-04-25 16:36 39.15469 -86.61672 869 ft 14 kts 82°
2026-04-25 16:36 39.15472 -86.61634 861 ft 13 kts 98°
2026-04-25 16:36 39.15321 -86.61578 865 ft 15 kts 171°
2026-04-25 16:36 39.15214 -86.61559 865 ft 16 kts 171°
2026-04-25 16:37 39.15101 -86.61536 865 ft 16 kts 171°
2026-04-25 16:37 39.15046 -86.61455 863 ft 14 kts 102°
2026-04-25 16:37 39.15019 -86.61365 852 ft 10 kts 116°
2026-04-25 16:37 39.14994 -86.61318 863 ft 10 kts 154°
2026-04-25 16:38 39.14947 -86.61336 858 ft 5 kts 246°
2026-04-25 16:38 39.14944 -86.61359 863 ft 0 kts 276°
2026-04-25 16:38 39.14944 -86.61360 863 ft 2 kts 276°
2026-04-25 16:38 39.14944 -86.61365 863 ft 0 kts 274°
2026-04-25 16:39 39.14944 -86.61368 863 ft 0 kts 272°
2026-04-25 16:39 39.14944 -86.61371 863 ft 0 kts 273°
2026-04-25 16:39 39.14944 -86.61373 863 ft 1 kts 271°